Iron Mountain, MI

7:59 AM CDT on September 27, 2016 (GMT -0500)
Ford

Weather History for KIMT - October, 2010

Change the Weather History Date:

Thursday, October 14, 2010

  Actual Average Record
Temperature  
Mean Temperature 45 °F -  
Max Temperature 57 °F 58 °F 82 °F (1947)
Min Temperature 33 °F 35 °F 19 °F (2002)
Degree Days  
Heating Degree Days 20    
Moisture  
Dew Point 37 °F    
Average Humidity 78    
Maximum Humidity 100    
Minimum Humidity 39    
Precipitation  
Precipitation 0.05 in - - ()
Sea Level Pressure  
Sea Level Pressure 29.88 in    
Wind  
Wind Speed 2 mph (WNW)    
Max Wind Speed 15 mph    
Max Gust Speed 24 mph    
Visibility 8 miles    
Events Fog , Rain    
Averages and records for this station are not official NWS values.
T = Trace of Precipitation, MM = Missing Value Source: NWS Daily Summary

Daily Weather History Graph

Daily Weather History Graph

Search for Another Location

Airport or City:

Trip Planner

Search our weather history database for the weather conditions in past years. The results will help you decide how hot, cold, wet, or windy it might be!

Date:

Astronomy

Oct. 14, 2010 Rise Set
Actual Time 7:07 AM CDT 6:08 PM CDT
Civil Twilight 6:37 AM CDT 6:38 PM CDT
Nautical Twilight 6:03 AM CDT 7:12 PM CDT
Astronomical Twilight 5:28 AM CDT 7:47 PM CDT
Moon 2:19 PM CDT (10/14) 11:39 PM CDT (10/14)
Length of Visible Light 12h 00m
Length of Day
11h 00m
Waxing Crescent, 48% of the Moon is Illuminated
Oct 14
Waxing Crescent
Oct 14
First Quarter
Oct 22
Full
Oct 30
Last Quarter
Nov 5
New

Hourly Weather History & Observations

Time (CDT) Temp. Windchill Dew Point Humidity Pressure Visibility Wind Dir Wind Speed Gust Speed Precip Events Conditions
12:54 AM 34.0 °F - 30.0 °F 85% 30.08 in 10.0 mi Calm Calm - N/A   Clear
1:54 AM 33.1 °F - 28.0 °F 82% 30.06 in 10.0 mi Calm Calm - N/A   Clear
2:54 AM 34.0 °F - 28.0 °F 79% 30.04 in 10.0 mi Calm Calm - N/A   Clear
3:54 AM 37.0 °F - 28.9 °F 73% 30.03 in 10.0 mi Calm Calm - N/A   Clear
4:54 AM 35.1 °F - 28.9 °F 78% 30.04 in 10.0 mi Calm Calm - N/A   Clear
6:54 AM 35.1 °F - 30.0 °F 82% 30.02 in 10.0 mi Calm Calm - N/A   Clear
7:54 AM 37.9 °F - 32.0 °F 79% 30.01 in 10.0 mi Calm Calm - N/A   Clear
8:54 AM 42.1 °F - 33.1 °F 70% 30.00 in 10.0 mi Calm Calm - N/A   Scattered Clouds
9:54 AM 46.0 °F 44.8 °F 35.1 °F 66% 29.98 in 10.0 mi West 3.5 mph - N/A   Scattered Clouds
11:54 AM 54.0 °F - 34.0 °F 47% 29.90 in 10.0 mi Calm Calm - N/A   Scattered Clouds
12:54 PM 55.9 °F - 33.1 °F 42% 29.86 in 10.0 mi SW 4.6 mph - N/A   Clear
1:54 PM 57.0 °F - 36.0 °F 45% 29.82 in 10.0 mi South 6.9 mph - N/A   Clear
2:54 PM 57.9 °F - 33.1 °F 39% 29.77 in 10.0 mi SW 11.5 mph 20.7 mph N/A   Partly Cloudy
3:54 PM 57.0 °F - 33.1 °F 40% 29.77 in 10.0 mi SSW 10.4 mph 18.4 mph 0.00 in Rain Light Rain
4:54 PM 54.0 °F - 39.0 °F 57% 29.79 in 10.0 mi NW 15.0 mph 24.2 mph 0.00 in   Mostly Cloudy
5:54 PM 48.9 °F - 44.1 °F 83% 29.80 in 10.0 mi Calm Calm - 0.04 in   Scattered Clouds
6:28 PM 44.6 °F - 44.6 °F 100% 29.77 in 1.2 mi Calm Calm - N/A   Clear
6:36 PM 44.6 °F - 44.6 °F 100% 29.78 in 0.8 mi Calm Calm - N/A   Clear
6:40 PM 44.6 °F - 44.6 °F 100% 29.78 in 2.0 mi Calm Calm - N/A   Clear
6:45 PM 42.8 °F - 42.8 °F 100% 29.78 in 1.0 mi Calm Calm - N/A   Mist
6:52 PM 42.8 °F 41.1 °F 42.8 °F 100% 29.78 in 0.5 mi NNW 3.5 mph - N/A Fog Fog
6:54 PM 42.1 °F - 42.1 °F 100% 29.82 in 0.8 mi Calm Calm - N/A   Clear
6:58 PM 42.8 °F 41.1 °F 42.8 °F 100% 29.78 in 2.0 mi NNW 3.5 mph - N/A   Clear
7:05 PM 42.8 °F 40.1 °F 42.8 °F 100% 29.78 in 10.0 mi NW 4.6 mph - N/A   Partly Cloudy
7:54 PM 48.0 °F - 41.0 °F 77% 29.83 in 10.0 mi NNW 5.8 mph - 0.00 in   Overcast
8:54 PM 45.0 °F 41.2 °F 42.1 °F 90% 29.84 in 10.0 mi NW 6.9 mph - 0.01 in   Mostly Cloudy
9:54 PM 46.0 °F 41.0 °F 42.1 °F 86% 29.86 in 10.0 mi NNW 10.4 mph 19.6 mph 0.00 in Rain Light Rain
10:54 PM 46.0 °F 40.6 °F 42.1 °F 86% 29.87 in 10.0 mi NW 11.5 mph - 0.00 in   Mostly Cloudy
11:54 PM 44.1 °F 39.5 °F 41.0 °F 89% 29.88 in 10.0 mi NNW 8.1 mph - N/A   Partly Cloudy